| time (UTC) | temp F | wind direction | speed MPH | gust MPH | rain 1hr in | rain 24hr in | rain mn in | humidity % | barometer mb |
| 20260505021632 | 61 | 0 | 0.0 | 0.0 | 0.00 | 0.00 | 0.00 | 60 | 829.0 |
| 20260505020633 | 61 | 0 | 0.0 | 0.0 | 0.00 | 0.00 | 0.00 | 59 | 829.0 |
| 20260505015235 | 62 | 0 | 0.0 | 0.0 | 0.00 | 0.00 | 0.00 | 58 | 829.0 |
| 20260505014235 | 62 | 0 | 0.0 | 0.0 | 0.00 | 0.00 | 0.00 | 57 | 829.0 |
| 20260505013236 | 63 | 0 | 0.0 | 0.0 | 0.00 | 0.00 | 0.00 | 57 | 829.0 |
| 20260505012235 | 63 | 0 | 0.0 | 0.0 | 0.00 | 0.00 | 0.00 | 55 | 829.0 |
| 20260505010831 | 64 | 0 | 0.0 | 0.0 | 0.00 | 0.00 | 0.00 | 54 | 829.0 |
| 20260505005830 | 64 | 0 | 0.0 | 0.0 | 0.00 | 0.00 | 0.00 | 53 | 829.0 |
| 20260505004830 | 65 | 0 | 0.0 | 0.0 | 0.00 | 0.00 | 0.00 | 52 | 829.0 |
| 20260505003831 | 66 | 0 | 0.0 | 0.0 | 0.00 | 0.00 | 0.00 | 51 | 829.0 |
| 20260505002429 | 67 | 0 | 0.0 | 0.0 | 0.00 | 0.00 | 0.00 | 50 | 829.0 |
| 20260505001430 | 68 | 0 | 0.0 | 0.0 | 0.00 | 0.00 | 0.00 | 49 | 829.0 |
| 20260505000429 | 69 | 0 | 0.0 | 0.0 | 0.00 | 0.00 | 0.00 | 48 | 829.0 |
| 20260504235430 | 70 | 0 | 0.0 | 0.0 | 0.00 | 0.00 | 0.00 | 46 | 829.0 |
| 20260504234027 | 71 | 0 | 0.0 | 0.0 | 0.00 | 0.00 | 0.00 | 44 | 829.0 |
| 20260504233026 | 72 | 0 | 0.0 | 1.0 | 0.00 | 0.00 | 0.00 | 45 | 829.0 |
| 20260504232027 | 73 | 0 | 0.0 | 2.0 | 0.00 | 0.00 | 0.00 | 43 | 944.6 |
| 20260504231026 | 73 | 0 | 0.0 | 1.0 | 0.00 | 0.00 | 0.00 | 42 | 944.6 |
| 20260504225632 | 73 | 0 | 0.0 | 1.0 | 0.00 | 0.00 | 0.00 | 43 | 944.6 |
| 20260504224632 | 73 | 0 | 0.0 | 1.0 | 0.00 | 0.00 | 0.00 | 43 | 944.6 |
| 20260504223632 | 72 | 0 | 0.0 | 4.0 | 0.00 | 0.00 | 0.00 | 43 | 944.6 |
| 20260504222632 | 72 | 0 | 0.0 | 12.0 | 0.00 | 0.00 | 0.00 | 41 | 944.6 |
| 20260504221311 | 74 | 213 | 2.0 | 6.0 | 0.00 | 0.00 | 0.00 | 41 | 944.6 |
| 20260504220310 | 73 | 235 | 1.0 | 8.0 | 0.00 | 0.00 | 0.00 | 40 | 944.6 |
| 20260504215311 | 72 | 0 | 0.0 | 12.0 | 0.00 | 0.00 | 0.00 | 44 | 944.6 |
| 20260504214311 | 72 | 222 | 1.0 | 10.0 | 0.00 | 0.00 | 0.00 | 41 | 944.6 |
| 20260504213311 | 73 | 0 | 0.0 | 10.0 | 0.00 | 0.00 | 0.00 | 42 | 944.6 |
| 20260504212311 | 73 | 217 | 3.0 | 11.0 | 0.00 | 0.00 | 0.00 | 42 | 944.6 |
| 20260504210911 | 73 | 212 | 2.0 | 8.0 | 0.00 | 0.00 | 0.00 | 41 | 944.6 |
| 20260504205912 | 74 | 232 | 1.0 | 7.0 | 0.00 | 0.00 | 0.00 | 40 | 944.6 |
| 20260504204912 | 74 | 227 | 4.0 | 8.0 | 0.00 | 0.00 | 0.00 | 39 | 944.6 |
| 20260504203912 | 75 | 0 | 0.0 | 6.0 | 0.00 | 0.00 | 0.00 | 39 | 944.6 |
| 20260504202513 | 73 | 0 | 0.0 | 8.0 | 0.00 | 0.00 | 0.00 | 41 | 944.6 |
| 20260504201513 | 74 | 0 | 0.0 | 5.0 | 0.00 | 0.00 | 0.00 | 40 | 944.6 |
| 20260504200513 | 72 | 205 | 1.0 | 10.0 | 0.00 | 0.00 | 0.00 | 41 | 944.6 |
| 20260504195513 | 72 | 225 | 6.0 | 12.0 | 0.00 | 0.00 | 0.00 | 42 | 944.6 |
| 20260504194116 | 72 | 217 | 2.0 | 10.0 | 0.00 | 0.00 | 0.00 | 42 | 944.6 |
| 20260504193116 | 73 | 0 | 0.0 | 7.0 | 0.00 | 0.00 | 0.00 | 41 | 944.6 |
| 20260504192116 | 72 | 204 | 5.0 | 10.0 | 0.00 | 0.00 | 0.00 | 43 | 944.6 |
| 20260504191116 | 71 | 189 | 1.0 | 10.0 | 0.00 | 0.00 | 0.00 | 41 | 944.6 |
| 20260504185720 | 71 | 0 | 0.0 | 10.0 | 0.00 | 0.00 | 0.00 | 44 | 944.6 |
| 20260504184719 | 71 | 205 | 5.0 | 11.0 | 0.00 | 0.00 | 0.00 | 45 | 944.6 |
| 20260504183719 | 72 | 0 | 0.0 | 5.0 | 0.00 | 0.00 | 0.00 | 41 | 944.6 |
| 20260504182719 | 72 | 205 | 3.0 | 7.0 | 0.00 | 0.00 | 0.00 | 43 | 944.6 |
| 20260504181322 | 71 | 0 | 0.0 | 9.0 | 0.00 | 0.00 | 0.00 | 45 | 944.6 |
| 20260504180322 | 71 | 0 | 0.0 | 13.0 | 0.00 | 0.00 | 0.00 | 44 | 944.6 |
| 20260504175322 | 70 | 240 | 5.0 | 12.0 | 0.00 | 0.00 | 0.00 | 43 | 944.6 |
| 20260504174322 | 69 | 228 | 1.0 | 9.0 | 0.00 | 0.00 | 0.00 | 47 | 944.6 |
| 20260504172933 | 69 | 242 | 5.0 | 14.0 | 0.00 | 0.00 | 0.00 | 43 | 944.6 |
| 20260504171933 | 67 | 229 | 1.0 | 8.0 | 0.00 | 0.00 | 0.00 | 44 | 944.6 |
| 20260504170933 | 70 | 155 | 1.0 | 5.0 | 0.00 | 0.00 | 0.00 | 46 | 944.6 |
| 20260504160152 | 66 | 223 | 4.0 | 7.0 | 0.00 | 0.00 | 0.00 | 45 | 944.6 |
| 20260504150759 | 64 | 246 | 1.0 | 7.0 | 0.00 | 0.00 | 0.00 | 50 | 944.6 |
| 20260504140401 | 62 | 0 | 0.0 | 1.0 | 0.00 | 0.00 | 0.00 | 60 | 944.6 |
| 20260504130615 | 56 | 215 | 4.0 | 11.0 | 0.00 | 0.00 | 0.00 | 71 | 944.6 |
| 20260504120219 | 51 | 0 | 0.0 | 5.0 | 0.00 | 0.00 | 0.00 | 81 | 944.6 |
| 20260504081300 | 44 | 0 | 0.0 | 0.0 | 0.00 | 0.00 | 0.00 | 70 | 944.6 |
| 20260504060107 | 48 | 0 | 0.0 | 1.0 | 0.00 | 0.00 | 0.00 | 58 | 944.6 |
| 20260504050336 | 50 | 219 | 2.0 | 6.0 | 0.00 | 0.00 | 0.00 | 54 | 944.6 |
| 20260504045335 | 50 | 0 | 0.0 | 2.0 | 0.00 | 0.00 | 0.00 | 54 | 944.6 |
| 20260504044336 | 50 | 0 | 0.0 | 4.0 | 0.00 | 0.00 | 0.00 | 54 | 944.6 |
| 20260504043335 | 50 | 0 | 0.0 | 7.0 | 0.00 | 0.00 | 0.00 | 55 | 944.6 |
| 20260504041941 | 50 | 0 | 0.0 | 4.0 | 0.00 | 0.00 | 0.00 | 54 | 944.6 |
| 20260504040941 | 49 | 0 | 0.0 | 2.0 | 0.00 | 0.00 | 0.00 | 55 | 944.6 |
| 20260504035941 | 49 | 0 | 0.0 | 3.0 | 0.00 | 0.00 | 0.00 | 56 | 944.6 |
| 20260504034941 | 49 | 0 | 0.0 | 3.0 | 0.00 | 0.00 | 0.00 | 56 | 944.6 |
| 20260504033546 | 49 | 0 | 0.0 | 0.0 | 0.00 | 0.00 | 0.00 | 56 | 944.6 |
| 20260504032546 | 49 | 0 | 0.0 | 1.0 | 0.00 | 0.00 | 0.00 | 56 | 944.6 |
| 20260504031545 | 49 | 0 | 0.0 | 1.0 | 0.00 | 0.00 | 0.00 | 56 | 944.6 |
| 20260504030546 | 49 | 0 | 0.0 | 0.0 | 0.00 | 0.00 | 0.00 | 55 | 944.6 |
| 20260504025153 | 50 | 0 | 0.0 | 0.0 | 0.00 | 0.00 | 0.00 | 54 | 944.6 |
| 20260504024153 | 50 | 0 | 0.0 | 0.0 | 0.00 | 0.00 | 0.00 | 54 | 944.6 |
| 20260504023153 | 50 | 0 | 0.0 | 0.0 | 0.00 | 0.00 | 0.00 | 53 | 944.6 |
| 20260504022153 | 51 | 0 | 0.0 | 1.0 | 0.00 | 0.00 | 0.00 | 53 | 944.6 |